Johnstown, PA

11:05 AM EDT on August 23, 2017 (GMT -0400)
Johnstown-Cambria County

Weather History for KJST - May, 2013

Change the Weather History Date:

Tuesday, May 14, 2013

  Actual Average Record
Temperature  
Mean Temperature 40 °F 56 °F  
Max Temperature 53 °F 66 °F 90 °F (1900)
Min Temperature 28 °F 47 °F 28 °F (2013)
Degree Days  
Heating Degree Days 25 9  
Month to date heating degree days 151  
Since 1 July heating degree days 6482  
Cooling Degree Days 0 1  
Month to date cooling degree days 1  
Year to date cooling degree days 6  
Moisture  
Dew Point 26 °F    
Average Humidity 54    
Maximum Humidity 75    
Minimum Humidity 36    
Precipitation  
Precipitation 0.01 in 0.14 in 1.17 in (1978)
Month to date precipitation 1.83  
Year to date precipitation 13.94  
Sea Level Pressure  
Sea Level Pressure 30.12 in    
Wind  
Wind Speed 5 mph (SW)    
Max Wind Speed 10 mph    
Max Gust Speed 17 mph    
Visibility 10 miles    
Events Rain    
T = Trace of Precipitation, MM = Missing Value Source: NWS Daily Summary

Daily Weather History Graph

Daily Weather History Graph

Search for Another Location

Airport or City:

Trip Planner

Search our weather history database for the weather conditions in past years. The results will help you decide how hot, cold, wet, or windy it might be!

Date:

Astronomy

May. 14, 2013 Rise Set
Actual Time 5:59 AM EDT 8:23 PM EDT
Civil Twilight 5:29 AM EDT 8:54 PM EDT
Nautical Twilight 4:51 AM EDT 9:32 PM EDT
Astronomical Twilight 4:09 AM EDT 10:15 PM EDT
Moon 9:38 AM EDT (5/14) No Moon Set
Length of Visible Light 15h 25m
Length of Day
14h 23m
Waxing Crescent, 19% of the Moon is Illuminated
May 14
Waxing Crescent
May 18
First Quarter
May 25
Full
May 31
Last Quarter
Jun 8
New

Hourly Weather History & Observations

Time (EDT) Temp. Windchill Dew Point Humidity Pressure Visibility Wind Dir Wind Speed Gust Speed Precip Events Conditions
12:54 AM 34.0 °F 31.0 °F 19.9 °F 56% 30.17 in 10.0 mi NNW 3.5 mph - N/A   Clear
1:54 AM 34.0 °F 31.0 °F 21.0 °F 59% 30.18 in 10.0 mi WSW 3.5 mph - N/A   Clear
2:54 AM 32.0 °F 28.7 °F 21.9 °F 66% 30.17 in 10.0 mi WSW 3.5 mph - N/A   Clear
3:54 AM 30.9 °F 27.5 °F 21.9 °F 69% 30.18 in 10.0 mi SW 3.5 mph - N/A   Clear
4:54 AM 28.9 °F 25.2 °F 21.9 °F 75% 30.18 in 10.0 mi SW 3.5 mph - N/A   Clear
5:54 AM 30.9 °F 25.2 °F 21.9 °F 69% 30.17 in 10.0 mi SSW 5.8 mph - N/A   Clear
6:54 AM 30.0 °F 26.5 °F 21.9 °F 72% 30.19 in 10.0 mi SSW 3.5 mph - N/A   Clear
7:54 AM 34.0 °F 29.8 °F 25.0 °F 70% 30.20 in 10.0 mi SW 4.6 mph - N/A   Clear
8:54 AM 37.9 °F 34.4 °F 24.1 °F 57% 30.20 in 10.0 mi SW 4.6 mph - N/A   Clear
9:54 AM 42.1 °F 38.4 °F 21.0 °F 43% 30.19 in 10.0 mi SW 5.8 mph - N/A   Clear
10:54 AM 46.0 °F 41.9 °F 25.0 °F 44% 30.17 in 10.0 mi West 8.1 mph - N/A   Clear
11:54 AM 48.9 °F - 26.1 °F 41% 30.15 in 10.0 mi West 10.4 mph 17.3 mph N/A   Scattered Clouds
12:54 PM 52.0 °F - 27.0 °F 38% 30.14 in 10.0 mi NW 9.2 mph - N/A   Mostly Cloudy
1:54 PM 50.0 °F - 24.1 °F 36% 30.13 in 10.0 mi West 9.2 mph - N/A   Overcast
2:54 PM 50.0 °F - 25.0 °F 38% 30.13 in 10.0 mi NW 4.6 mph - N/A   Overcast
3:54 PM 50.0 °F - 26.1 °F 39% 30.10 in 10.0 mi Calm Calm - N/A   Overcast
4:54 PM 50.0 °F - 27.0 °F 41% 30.09 in 10.0 mi Calm Calm - N/A   Overcast
5:54 PM 48.9 °F - 30.0 °F 48% 30.07 in 10.0 mi ESE 3.5 mph - 0.00 in Rain Light Rain
6:54 PM 46.9 °F - 33.1 °F 59% 30.03 in 10.0 mi ESE 4.6 mph - 0.00 in   Overcast
7:54 PM 46.0 °F 43.1 °F 32.0 °F 58% 30.04 in 10.0 mi SE 5.8 mph - 0.01 in   Overcast
8:54 PM 46.9 °F - 32.0 °F 56% 30.05 in 10.0 mi SE 8.1 mph - N/A   Overcast
9:54 PM 48.0 °F - 30.9 °F 52% 30.04 in 10.0 mi SE 6.9 mph - N/A   Overcast
10:54 PM 48.0 °F - 32.0 °F 54% 30.02 in 10.0 mi SSE 9.2 mph - N/A   Overcast
11:54 PM 48.0 °F - 32.0 °F 54% 29.99 in 10.0 mi SSE 10.4 mph - N/A   Overcast